Location: St. Louis
(38.6270°N, 90.1994°W)
Time: 06:30:50
(UTC-06:00)

A-11 Canister half - Pass Details

Date: 04 December 2021
Orbit: 1524 x 1684 km, 47.3° (Epoch: 22 January)

Event Time Altitude Azimuth Distance (km) Brightness Sun altitude
Exits shadow 01:18:28 11° 61° (ENE) 3,827 11.3 -65.2°
Drops below altitude 10° 01:18:44 10° 61° (ENE) 3,909 11.4 -65.1°
Sets 01:21:53 0° 60° (ENE) 4,893 12.0 -64.6°
